Terug naar catalogus

FENGYUN 1C DEB

ActiefPO
NORAD 31741·DEBRIS·🇨🇳 China

Gelanceerd May 10, 1999 vanaf Taiyuan Satellite Launch Center

Loading…

Volgende Passages (komende 24 uur)

TLE

VerouderendSource: Space-Track

Epoch: Sep 7, 2026, 00:32 UTC

1 31741U 99025CEQ 26250.02234562  .00002042  00000-0  65319-3 0  9995
2 31741  99.0751 192.6664 0174176  11.2323 349.2670 14.32517890 60592

Volg FENGYUN 1C DEB in realtime met AllMySat

Download on the App Store